User: anonymous
Location: Caltech
(34.1382°N, 118.1253°W)
Time: 02:36:57
(UTC-07:00)
Language:

AO-27 - Orbit

View from above orbital plane
View from above orbital plane
View from above satellite
View from above satellite

Ground track
Ground track

The orbit data is extracted from the following two-line orbital elements,

1 22825U 93061C   14110.46912030  .00000259  00000-0  11828-3 0  6468
2 22825 098.6574 056.8729 0009637 106.6475 029.8720 14.29702757 72530
Epoch (UTC): 20 April 2014 11:15:31
Eccentricity: 0.0009637
inclination: 98.6574°
perigee height: 786 km
apogee height: 799 km
right ascension of ascending node: 56.8729°
argument of perigee: 106.6475°
revolutions per day: 14.29702757
mean anomaly at epoch: 29.8720°
orbit number at epoch: 7253

The dashed part of the orbit path shows where the satellite is in the earth's shadow,  

DLR